RYR84KK LEAM-EBCI

Flight info

Callsign RYR84KK
Flight time 2h 27m
Altitude 38000
Route ESILA N865 VTB DCT RBO DCT OSTIX DCT GASMO DCT DGO N858 ABRIX DCT CNA DCT ADABI DCT BOKNO UN858 VANAD UN874 BAMES UT191 PODEM UN873 BAZOS DCT BELDI DCT VEKIN Z173 ARVOL
Aircraft B738/M-SDE2E3FGHIRWXY/LB1

Departure

Time 2026-04-25 01:20
Airport Almería Airport (LEAM)

Arrival

Time 2026-04-25 03:47
Airport Brussels South Charleroi Airport (EBCI)
Time Latitude Longitude Altitude Speed Heading
2026-04-25 00:56 36.84695 -2.37073 69 ft 0 kts 145°
2026-04-25 01:13 36.84673 -2.37053 65 ft 9 kts 145°
2026-04-25 01:13 36.84651 -2.36977 66 ft 9 kts 83°
2026-04-25 01:13 36.84623 -2.36903 61 ft 11 kts 127°
2026-04-25 01:14 36.84620 -2.36801 58 ft 14 kts 73°
2026-04-25 01:14 36.84651 -2.36675 62 ft 16 kts 73°
2026-04-25 01:14 36.84687 -2.36528 60 ft 19 kts 73°
2026-04-25 01:14 36.84727 -2.36363 61 ft 21 kts 73°
2026-04-25 01:15 36.84769 -2.36192 58 ft 20 kts 73°
2026-04-25 01:15 36.84810 -2.36025 61 ft 20 kts 73°
2026-04-25 01:15 36.84850 -2.35864 60 ft 19 kts 73°
2026-04-25 01:15 36.84887 -2.35710 61 ft 18 kts 73°
2026-04-25 01:16 36.84924 -2.35560 64 ft 18 kts 73°
2026-04-25 01:16 36.84952 -2.35429 58 ft 14 kts 88°
2026-04-25 01:16 36.84927 -2.35353 57 ft 0 kts 135°
2026-04-25 01:16 36.84926 -2.35352 64 ft 0 kts 135°
2026-04-25 01:17 36.84926 -2.35351 64 ft 0 kts 135°
2026-04-25 01:18 36.84917 -2.35342 63 ft 4 kts 143°
2026-04-25 01:18 36.84860 -2.35316 59 ft 13 kts 164°
2026-04-25 01:19 36.84802 -2.35344 54 ft 11 kts 255°
2026-04-25 01:19 36.84723 -2.35675 55 ft 74 kts 253°
2026-04-25 01:19 36.84508 -2.36553 52 ft 135 kts 253°
2026-04-25 01:19 36.84193 -2.37841 301 ft 163 kts 253°
2026-04-25 01:20 36.83858 -2.39199 1012 ft 165 kts 252°
2026-04-25 01:20 36.83505 -2.40620 1556 ft 181 kts 255°
2026-04-25 01:20 36.83112 -2.42255 1824 ft 210 kts 254°
2026-04-25 01:20 36.82664 -2.44096 2048 ft 233 kts 253°
2026-04-25 01:21 36.82174 -2.46083 2530 ft 244 kts 253°
2026-04-25 01:21 36.81668 -2.48116 3325 ft 246 kts 253°
2026-04-25 01:21 36.81157 -2.50159 4112 ft 248 kts 253°
2026-04-25 01:21 36.80645 -2.52225 4887 ft 250 kts 253°
2026-04-25 01:22 36.80130 -2.54311 5650 ft 253 kts 253°
2026-04-25 01:22 36.79610 -2.56416 6418 ft 255 kts 253°
2026-04-25 01:22 36.79084 -2.58542 7130 ft 257 kts 253°
2026-04-25 01:22 36.78552 -2.60687 7830 ft 261 kts 253°
2026-04-25 01:23 36.78030 -2.62863 8550 ft 262 kts 258°
2026-04-25 01:23 36.78083 -2.65118 9245 ft 265 kts 289°
2026-04-25 01:23 36.79071 -2.67052 9929 ft 269 kts 319°
2026-04-25 01:23 36.80689 -2.68203 10578 ft 270 kts 341°
2026-04-25 01:24 36.82495 -2.68926 11218 ft 275 kts 343°
2026-04-25 01:24 36.84339 -2.69596 11905 ft 278 kts 343°
2026-04-25 01:24 36.86206 -2.70270 12589 ft 281 kts 343°
2026-04-25 01:24 36.88090 -2.70960 13290 ft 284 kts 343°
2026-04-25 01:25 36.89997 -2.71667 14006 ft 287 kts 342°
2026-04-25 01:25 36.91897 -2.72379 14659 ft 290 kts 342°
2026-04-25 01:25 36.93866 -2.73122 15329 ft 293 kts 342°
2026-04-25 01:25 36.95800 -2.73855 15978 ft 297 kts 342°
2026-04-25 01:26 36.97790 -2.74611 16615 ft 302 kts 343°
2026-04-25 01:26 36.99813 -2.75381 17262 ft 305 kts 343°
2026-04-25 01:26 37.01855 -2.76158 17948 ft 308 kts 343°
2026-04-25 01:26 37.03899 -2.77018 18584 ft 312 kts 333°
2026-04-25 01:27 37.05595 -2.78711 19025 ft 319 kts 307°
2026-04-25 01:27 37.06756 -2.81162 19165 ft 337 kts 296°
2026-04-25 01:27 37.07823 -2.83870 19302 ft 356 kts 295°
2026-04-25 01:28 37.10089 -2.89741 19609 ft 390 kts 295°
2026-04-25 01:28 37.11291 -2.92829 20046 ft 397 kts 295°
2026-04-25 01:28 37.12513 -2.95945 20642 ft 399 kts 295°
2026-04-25 01:28 37.13747 -2.99073 21232 ft 401 kts 295°
2026-04-25 01:29 37.14992 -3.02221 21771 ft 405 kts 295°
2026-04-25 01:29 37.16250 -3.05403 22284 ft 409 kts 295°
2026-04-25 01:29 37.17512 -3.08600 22920 ft 409 kts 296°
2026-04-25 01:29 37.18776 -3.11803 23481 ft 412 kts 296°
2026-04-25 01:30 37.20053 -3.15041 23903 ft 416 kts 296°
2026-04-25 01:30 37.21339 -3.18306 24303 ft 420 kts 296°
2026-04-25 01:30 37.22637 -3.21603 24739 ft 422 kts 296°
2026-04-25 01:30 37.23938 -3.24917 25171 ft 424 kts 296°
2026-04-25 01:31 37.25247 -3.28252 25585 ft 427 kts 296°
2026-04-25 01:31 37.26581 -3.31597 25994 ft 430 kts 296°
2026-04-25 01:31 37.27936 -3.34954 26399 ft 433 kts 296°
2026-04-25 01:31 37.29303 -3.38334 26789 ft 435 kts 296°
2026-04-25 01:32 37.30675 -3.41735 27175 ft 438 kts 296°
2026-04-25 01:32 37.32052 -3.45162 27573 ft 440 kts 297°
2026-04-25 01:32 37.33434 -3.48605 27974 ft 442 kts 297°
2026-04-25 01:32 37.34820 -3.52064 28330 ft 445 kts 297°
2026-04-25 01:33 37.36215 -3.55548 28666 ft 448 kts 297°
2026-04-25 01:33 37.37893 -3.58845 28959 ft 451 kts 314°
2026-04-25 01:33 37.40342 -3.61282 29296 ft 451 kts 332°
2026-04-25 01:33 37.43232 -3.62774 29687 ft 450 kts 347°
2026-04-25 01:34 37.46320 -3.63238 30091 ft 447 kts
2026-04-25 01:34 37.49440 -3.63205 30361 ft 450 kts
2026-04-25 01:34 37.52583 -3.63096 30563 ft 454 kts
2026-04-25 01:34 37.55750 -3.62997 30803 ft 456 kts
2026-04-25 01:35 37.58884 -3.62936 31084 ft 457 kts
2026-04-25 01:35 37.62064 -3.62904 31443 ft 457 kts
2026-04-25 01:35 37.65238 -3.62883 31835 ft 455 kts
2026-04-25 01:35 37.68395 -3.62863 32291 ft 452 kts
2026-04-25 01:36 37.71525 -3.62839 32767 ft 448 kts
2026-04-25 01:36 37.74645 -3.62814 33041 ft 449 kts
2026-04-25 01:36 37.77779 -3.62787 33250 ft 452 kts
2026-04-25 01:36 37.80925 -3.62759 33551 ft 452 kts
2026-04-25 01:37 37.84063 -3.62733 33927 ft 450 kts
2026-04-25 01:37 37.87196 -3.62707 34235 ft 450 kts
2026-04-25 01:37 37.90329 -3.62680 34454 ft 451 kts
2026-04-25 01:37 37.93458 -3.62654 34795 ft 448 kts
2026-04-25 01:38 37.96569 -3.62629 35066 ft 448 kts
2026-04-25 01:38 37.99687 -3.62603 35261 ft 449 kts
2026-04-25 01:38 38.02814 -3.62576 35463 ft 450 kts
2026-04-25 01:38 38.05941 -3.62551 35724 ft 449 kts
2026-04-25 01:39 38.09066 -3.62525 35986 ft 448 kts
2026-04-25 01:39 38.12184 -3.62496 36186 ft 449 kts
2026-04-25 01:39 38.15311 -3.62465 36372 ft 450 kts
2026-04-25 01:39 38.18434 -3.62293 36600 ft 449 kts
2026-04-25 01:40 38.21549 -3.62004 36840 ft 448 kts
2026-04-25 01:40 38.24659 -3.61672 37026 ft 449 kts
2026-04-25 01:40 38.27775 -3.61330 37223 ft 449 kts
2026-04-25 01:40 38.30889 -3.60996 37416 ft 450 kts
2026-04-25 01:41 38.34009 -3.60674 37619 ft 450 kts
2026-04-25 01:41 38.37128 -3.60361 37833 ft 450 kts
2026-04-25 01:41 38.40249 -3.60056 37995 ft 449 kts
2026-04-25 01:41 38.43351 -3.59755 38077 ft 445 kts
2026-04-25 01:42 38.49513 -3.59158 38110 ft 445 kts
2026-04-25 01:42 38.55724 -3.58556 38126 ft 450 kts
2026-04-25 01:43 38.62018 -3.57942 38118 ft 456 kts
2026-04-25 01:43 38.68355 -3.57325 38096 ft 455 kts
2026-04-25 01:44 38.74564 -3.56717 38103 ft 447 kts
2026-04-25 01:44 38.80756 -3.56108 38111 ft 445 kts
2026-04-25 01:45 38.86922 -3.55503 38109 ft 443 kts
2026-04-25 01:45 38.93068 -3.54900 38118 ft 443 kts
2026-04-25 01:46 38.99219 -3.54294 38120 ft 444 kts
2026-04-25 01:46 39.05385 -3.53682 38120 ft 445 kts
2026-04-25 01:47 39.11582 -3.53067 38119 ft 447 kts
2026-04-25 01:47 39.17800 -3.52448 38126 ft 449 kts
2026-04-25 01:48 39.24055 -3.51824 38125 ft 451 kts
2026-04-25 01:48 39.30330 -3.51197 38117 ft 453 kts
2026-04-25 01:49 39.36632 -3.50565 38123 ft 455 kts
2026-04-25 01:49 39.42945 -3.49932 38125 ft 455 kts
2026-04-25 01:50 39.48201 -3.49404 38126 ft 456 kts
2026-04-25 01:50 39.54525 -3.48767 38113 ft 456 kts
2026-04-25 01:51 39.61879 -3.48027 38126 ft 456 kts
2026-04-25 01:51 39.68201 -3.47395 38125 ft 456 kts
2026-04-25 01:52 39.73500 -3.46865 38127 ft 456 kts
2026-04-25 01:52 39.79810 -3.46154 38119 ft 455 kts
2026-04-25 01:53 39.86063 -3.44948 38132 ft 454 kts 11°
2026-04-25 01:53 39.92252 -3.43628 38117 ft 454 kts 10°
2026-04-25 01:54 39.98478 -3.42336 38101 ft 453 kts 11°
2026-04-25 01:54 40.04715 -3.41068 38113 ft 454 kts 10°
2026-04-25 01:55 40.10975 -3.39813 38121 ft 456 kts 10°
2026-04-25 01:55 40.17241 -3.38551 38128 ft 456 kts 10°
2026-04-25 01:56 40.23517 -3.37283 38113 ft 457 kts 10°
2026-04-25 01:56 40.29803 -3.36012 38127 ft 457 kts 10°
2026-04-25 01:57 40.39258 -3.34095 38134 ft 459 kts 10°
2026-04-25 01:58 40.45576 -3.32810 38124 ft 460 kts
2026-04-25 01:58 40.51921 -3.31518 38134 ft 462 kts
2026-04-25 01:59 40.58282 -3.30221 38136 ft 463 kts
2026-04-25 01:59 40.64658 -3.28919 38132 ft 464 kts
2026-04-25 02:00 40.71038 -3.27612 38134 ft 464 kts
2026-04-25 02:00 40.77372 -3.26313 38141 ft 464 kts
2026-04-25 02:01 40.83751 -3.25002 38139 ft 464 kts
2026-04-25 02:01 40.90116 -3.23643 38138 ft 463 kts 10°
2026-04-25 02:02 40.96462 -3.22209 38139 ft 462 kts 10°
2026-04-25 02:02 41.02792 -3.20775 38139 ft 461 kts 10°
2026-04-25 02:03 41.09102 -3.19353 38142 ft 459 kts
2026-04-25 02:03 41.15390 -3.17940 38138 ft 457 kts
2026-04-25 02:04 41.21656 -3.16528 38139 ft 456 kts
2026-04-25 02:04 41.27902 -3.15118 38151 ft 455 kts
2026-04-25 02:05 41.34143 -3.13705 38153 ft 455 kts
2026-04-25 02:05 41.40394 -3.12286 38148 ft 456 kts
2026-04-25 02:06 41.46653 -3.10863 38156 ft 456 kts
2026-04-25 02:06 41.52915 -3.09439 38158 ft 457 kts
2026-04-25 02:07 41.59184 -3.08019 38157 ft 457 kts
2026-04-25 02:07 41.65462 -3.06594 38153 ft 458 kts
2026-04-25 02:08 41.71709 -3.05172 38150 ft 459 kts
2026-04-25 02:08 41.78005 -3.03729 38168 ft 459 kts
2026-04-25 02:09 41.84300 -3.02280 38155 ft 459 kts
2026-04-25 02:09 41.90600 -3.00826 38162 ft 460 kts
2026-04-25 02:10 41.96903 -2.99367 38159 ft 459 kts
2026-04-25 02:10 42.03201 -2.97908 38168 ft 459 kts
2026-04-25 02:11 42.09503 -2.96446 38167 ft 459 kts
2026-04-25 02:11 42.15801 -2.94980 38155 ft 459 kts
2026-04-25 02:12 42.22079 -2.93516 38172 ft 458 kts
2026-04-25 02:12 42.28352 -2.92051 38167 ft 457 kts
2026-04-25 02:13 42.34610 -2.90586 38168 ft 456 kts
2026-04-25 02:13 42.40861 -2.89119 38170 ft 455 kts
2026-04-25 02:14 42.46968 -2.86921 38169 ft 455 kts 24°
2026-04-25 02:14 42.52543 -2.82864 38168 ft 455 kts 30°
2026-04-25 02:15 42.58034 -2.78585 38178 ft 456 kts 30°
2026-04-25 02:15 42.63550 -2.74332 38169 ft 457 kts 29°
2026-04-25 02:16 42.69096 -2.70106 38169 ft 457 kts 29°
2026-04-25 02:16 42.74653 -2.65884 38166 ft 458 kts 29°
2026-04-25 02:17 42.80222 -2.61647 38159 ft 459 kts 29°
2026-04-25 02:17 42.85800 -2.57393 38158 ft 460 kts 29°
2026-04-25 02:18 42.91337 -2.53158 38185 ft 459 kts 29°
2026-04-25 02:18 42.96914 -2.48883 38188 ft 460 kts 29°
2026-04-25 02:19 43.02488 -2.44604 38178 ft 460 kts 29°
2026-04-25 02:19 43.08061 -2.40314 38198 ft 459 kts 29°
2026-04-25 02:20 43.13630 -2.36020 38191 ft 460 kts 29°
2026-04-25 02:20 43.19202 -2.31714 38187 ft 460 kts 29°
2026-04-25 02:21 43.24770 -2.27402 38180 ft 460 kts 29°
2026-04-25 02:21 43.30332 -2.23083 38186 ft 459 kts 29°
2026-04-25 02:22 43.35888 -2.18761 38184 ft 459 kts 30°
2026-04-25 02:22 43.41443 -2.14433 38185 ft 459 kts 30°
2026-04-25 02:23 43.46997 -2.10093 38192 ft 459 kts 30°
2026-04-25 02:23 43.52553 -2.05745 38178 ft 459 kts 30°
2026-04-25 02:24 43.58101 -2.01393 38174 ft 459 kts 30°
2026-04-25 02:24 43.63607 -1.97066 38179 ft 459 kts 30°
2026-04-25 02:25 43.69154 -1.92695 38171 ft 459 kts 30°
2026-04-25 02:25 43.74701 -1.88315 38173 ft 459 kts 30°
2026-04-25 02:26 43.80241 -1.83931 38166 ft 459 kts 30°
2026-04-25 02:26 43.85780 -1.79537 38170 ft 459 kts 30°
2026-04-25 02:27 43.91318 -1.75133 38165 ft 459 kts 30°
2026-04-25 02:27 43.96850 -1.70726 38164 ft 458 kts 30°
2026-04-25 02:28 44.02380 -1.66311 38163 ft 458 kts 30°
2026-04-25 02:28 44.07912 -1.61886 38157 ft 459 kts 30°
2026-04-25 02:29 44.13438 -1.57455 38157 ft 458 kts 30°
2026-04-25 02:29 44.18957 -1.53018 38154 ft 458 kts 30°
2026-04-25 02:30 44.24470 -1.48577 38149 ft 457 kts 30°
2026-04-25 02:30 44.29977 -1.44131 38151 ft 457 kts 30°
2026-04-25 02:31 44.35478 -1.39682 38145 ft 457 kts 30°
2026-04-25 02:31 44.40944 -1.35249 38137 ft 457 kts 30°
2026-04-25 02:32 44.46446 -1.30780 38131 ft 457 kts 30°
2026-04-25 02:32 44.51946 -1.26301 38135 ft 457 kts 30°
2026-04-25 02:33 44.57449 -1.21810 38130 ft 458 kts 30°
2026-04-25 02:33 44.62954 -1.17308 38139 ft 458 kts 30°
2026-04-25 02:34 44.68468 -1.12789 38137 ft 459 kts 30°
2026-04-25 02:34 44.73983 -1.08258 38130 ft 459 kts 30°
2026-04-25 02:35 44.79502 -1.03715 38131 ft 460 kts 30°
2026-04-25 02:35 44.85015 -0.99165 38130 ft 459 kts 30°
2026-04-25 02:36 44.90519 -0.94612 38119 ft 458 kts 30°
2026-04-25 02:36 44.96014 -0.90055 38130 ft 458 kts 30°
2026-04-25 02:37 45.01506 -0.85492 38122 ft 458 kts 30°
2026-04-25 02:37 45.06990 -0.80927 38127 ft 457 kts 30°
2026-04-25 02:38 45.12464 -0.76361 38115 ft 456 kts 30°
2026-04-25 02:38 45.17928 -0.71791 38120 ft 456 kts 30°
2026-04-25 02:39 45.23381 -0.67219 38118 ft 455 kts 30°
2026-04-25 02:39 45.28829 -0.62641 38117 ft 455 kts 30°
2026-04-25 02:40 45.33349 -0.58835 38116 ft 455 kts 30°
2026-04-25 02:40 45.38791 -0.54242 38114 ft 455 kts 30°
2026-04-25 02:41 45.44231 -0.49643 38106 ft 455 kts 30°
2026-04-25 02:41 45.49668 -0.45036 38108 ft 455 kts 30°
2026-04-25 02:42 45.55098 -0.40423 38103 ft 454 kts 30°
2026-04-25 02:42 45.60528 -0.35798 38106 ft 454 kts 30°
2026-04-25 02:43 45.65953 -0.31168 38102 ft 454 kts 30°
2026-04-25 02:43 45.71307 -0.26361 38107 ft 454 kts 32°
2026-04-25 02:44 45.76575 -0.21466 38108 ft 454 kts 32°
2026-04-25 02:44 45.81880 -0.16536 38110 ft 455 kts 32°
2026-04-25 02:45 45.87201 -0.11611 38103 ft 455 kts 32°
2026-04-25 02:45 45.92523 -0.06686 38104 ft 455 kts 32°
2026-04-25 02:46 45.97843 -0.01752 38109 ft 455 kts 32°
2026-04-25 02:46 46.03165 0.03198 38104 ft 455 kts 32°
2026-04-25 02:47 46.08482 0.08155 38099 ft 455 kts 32°
2026-04-25 02:47 46.13791 0.13117 38099 ft 454 kts 32°
2026-04-25 02:48 46.19091 0.18081 38108 ft 454 kts 32°
2026-04-25 02:48 46.24388 0.23051 38099 ft 454 kts 32°
2026-04-25 02:49 46.29678 0.28031 38097 ft 453 kts 32°
2026-04-25 02:49 46.34960 0.33013 38095 ft 453 kts 32°
2026-04-25 02:50 46.40238 0.38003 38101 ft 453 kts 32°
2026-04-25 02:50 46.45514 0.43004 38103 ft 453 kts 32°
2026-04-25 02:51 46.50781 0.48004 38102 ft 452 kts 32°
2026-04-25 02:51 46.56157 0.52700 38091 ft 450 kts 21°
2026-04-25 02:52 46.62107 0.55244 38114 ft 445 kts 10°
2026-04-25 02:52 46.68170 0.57124 38105 ft 445 kts 10°
2026-04-25 02:53 46.74224 0.59051 38095 ft 445 kts 10°
2026-04-25 02:53 46.80265 0.61038 38102 ft 445 kts 11°
2026-04-25 02:54 46.86303 0.63043 38098 ft 445 kts 11°
2026-04-25 02:54 46.92341 0.65049 38097 ft 445 kts 11°
2026-04-25 02:55 46.98381 0.67061 38098 ft 445 kts 11°
2026-04-25 02:55 47.04381 0.69044 38093 ft 444 kts
2026-04-25 02:56 47.10498 0.69981 38102 ft 442 kts
2026-04-25 02:56 47.16630 0.70485 38109 ft 441 kts
2026-04-25 02:57 47.22756 0.71051 38121 ft 441 kts
2026-04-25 02:57 47.28880 0.71680 38119 ft 441 kts
2026-04-25 02:58 47.35001 0.72327 38131 ft 441 kts
2026-04-25 02:58 47.41130 0.72973 38138 ft 442 kts
2026-04-25 02:59 47.47262 0.73618 38129 ft 442 kts
2026-04-25 02:59 47.53285 0.75472 38145 ft 445 kts 16°
2026-04-25 03:00 47.59145 0.78463 38127 ft 445 kts 17°
2026-04-25 03:00 47.65001 0.81444 38118 ft 445 kts 16°
2026-04-25 03:01 47.70868 0.84357 38120 ft 444 kts 16°
2026-04-25 03:01 47.76725 0.87250 38108 ft 443 kts 16°
2026-04-25 03:02 47.82571 0.90150 38124 ft 443 kts 16°
2026-04-25 03:02 47.88411 0.93077 38122 ft 443 kts 16°
2026-04-25 03:03 47.94243 0.96030 38126 ft 442 kts 17°
2026-04-25 03:03 48.00071 0.98984 38129 ft 442 kts 17°
2026-04-25 03:04 48.05858 1.01923 38133 ft 442 kts 17°
2026-04-25 03:04 48.11687 1.04889 38138 ft 443 kts 17°
2026-04-25 03:05 48.20430 1.09353 38142 ft 443 kts 17°
2026-04-25 03:05 48.26260 1.12328 38150 ft 443 kts 16°
2026-04-25 03:06 48.32093 1.15301 38139 ft 443 kts 16°
2026-04-25 03:06 48.37922 1.18281 38145 ft 442 kts 16°
2026-04-25 03:07 48.43753 1.21269 38140 ft 443 kts 16°
2026-04-25 03:07 48.49580 1.24262 38159 ft 442 kts 16°
2026-04-25 03:08 48.55406 1.27261 38160 ft 442 kts 16°
2026-04-25 03:08 48.61235 1.30211 38168 ft 441 kts 16°
2026-04-25 03:09 48.67060 1.33135 38156 ft 441 kts 16°
2026-04-25 03:09 48.72892 1.36075 38162 ft 442 kts 16°
2026-04-25 03:10 48.78729 1.39032 38162 ft 442 kts 16°
2026-04-25 03:10 48.84545 1.41988 38168 ft 440 kts 16°
2026-04-25 03:11 48.90350 1.44945 38168 ft 440 kts 16°
2026-04-25 03:11 48.96149 1.47904 38168 ft 440 kts 16°
2026-04-25 03:12 49.02082 1.49874 38180 ft 435 kts
2026-04-25 03:12 49.08088 1.51130 38184 ft 435 kts
2026-04-25 03:13 49.14039 1.52460 38168 ft 435 kts
2026-04-25 03:13 49.19945 1.53849 37734 ft 424 kts
2026-04-25 03:14 49.22867 1.54589 37046 ft 428 kts 11°
2026-04-25 03:14 49.25714 1.56069 36264 ft 437 kts 24°
2026-04-25 03:14 49.28341 1.58455 35658 ft 442 kts 35°
2026-04-25 03:14 49.30660 1.61566 35070 ft 444 kts 41°
2026-04-25 03:15 49.32879 1.64870 34436 ft 446 kts 43°
2026-04-25 03:15 49.35094 1.68220 33782 ft 448 kts 43°
2026-04-25 03:15 49.37321 1.71568 33095 ft 448 kts 42°
2026-04-25 03:15 49.39560 1.74898 32442 ft 449 kts 42°
2026-04-25 03:16 49.41814 1.78223 31776 ft 449 kts 41°
2026-04-25 03:16 49.44064 1.81531 31318 ft 445 kts 41°
2026-04-25 03:16 49.46289 1.84802 30828 ft 441 kts 41°
2026-04-25 03:16 49.48497 1.88049 30373 ft 437 kts 41°
2026-04-25 03:17 49.50683 1.91272 29856 ft 433 kts 41°
2026-04-25 03:17 49.52846 1.94468 29377 ft 429 kts 40°
2026-04-25 03:17 49.54983 1.97633 28908 ft 424 kts 40°
2026-04-25 03:17 49.57097 2.00766 28450 ft 420 kts 40°
2026-04-25 03:18 49.59187 2.03868 27985 ft 416 kts 41°
2026-04-25 03:18 49.61264 2.06952 27496 ft 413 kts 41°
2026-04-25 03:18 49.63322 2.10011 27044 ft 409 kts 41°
2026-04-25 03:18 49.65363 2.13048 26593 ft 406 kts 41°
2026-04-25 03:19 49.67388 2.16066 26143 ft 403 kts 41°
2026-04-25 03:19 49.69398 2.19067 25699 ft 401 kts 41°
2026-04-25 03:19 49.71393 2.22049 25256 ft 398 kts 41°
2026-04-25 03:19 49.73377 2.25017 24817 ft 396 kts 41°
2026-04-25 03:20 49.75357 2.27981 24373 ft 395 kts 41°
2026-04-25 03:20 49.77300 2.30895 23936 ft 393 kts 41°
2026-04-25 03:20 49.79261 2.33838 23417 ft 392 kts 41°
2026-04-25 03:20 49.81211 2.36770 22934 ft 390 kts 41°
2026-04-25 03:21 49.83148 2.39688 22478 ft 387 kts 41°
2026-04-25 03:21 49.85068 2.42581 22032 ft 384 kts 41°
2026-04-25 03:21 49.86973 2.45454 21594 ft 381 kts 41°
2026-04-25 03:21 49.88863 2.48309 21161 ft 378 kts 41°
2026-04-25 03:22 49.90740 2.51146 20734 ft 375 kts 41°
2026-04-25 03:22 49.92603 2.53968 20308 ft 373 kts 41°
2026-04-25 03:22 49.94432 2.56819 19884 ft 373 kts 46°
2026-04-25 03:22 49.95962 2.60074 19446 ft 375 kts 57°
2026-04-25 03:23 49.97097 2.63724 19015 ft 375 kts 65°
2026-04-25 03:23 49.98114 2.67454 18570 ft 375 kts 65°
2026-04-25 03:23 49.99119 2.71189 18105 ft 374 kts 65°
2026-04-25 03:23 50.00119 2.74905 17655 ft 372 kts 66°
2026-04-25 03:24 50.01117 2.78602 17216 ft 369 kts 65°
2026-04-25 03:24 50.02110 2.82265 16790 ft 367 kts 65°
2026-04-25 03:24 50.03099 2.85903 16378 ft 364 kts 65°
2026-04-25 03:24 50.04082 2.89516 15965 ft 361 kts 65°
2026-04-25 03:25 50.05057 2.93102 15558 ft 359 kts 66°
2026-04-25 03:25 50.06026 2.96669 15151 ft 357 kts 66°
2026-04-25 03:25 50.06988 3.00217 14749 ft 355 kts 66°
2026-04-25 03:25 50.07943 3.03738 14347 ft 352 kts 66°
2026-04-25 03:26 50.08893 3.07244 13934 ft 351 kts 66°
2026-04-25 03:26 50.09836 3.10729 13496 ft 348 kts 66°
2026-04-25 03:26 50.10772 3.14196 13074 ft 346 kts 66°
2026-04-25 03:26 50.11699 3.17638 12666 ft 343 kts 66°
2026-04-25 03:27 50.12617 3.21050 12273 ft 340 kts 66°
2026-04-25 03:27 50.13524 3.24428 11883 ft 337 kts 66°
2026-04-25 03:27 50.14426 3.27788 11499 ft 334 kts 66°
2026-04-25 03:27 50.15316 3.31114 11117 ft 331 kts 66°
2026-04-25 03:28 50.15902 3.33304 10864 ft 330 kts 66°
2026-04-25 03:28 50.16771 3.36556 10717 ft 319 kts 66°
2026-04-25 03:28 50.17879 3.40712 10532 ft 307 kts 66°
2026-04-25 03:28 50.18686 3.43741 10395 ft 298 kts 66°
2026-04-25 03:29 50.19469 3.46684 10277 ft 290 kts 66°
2026-04-25 03:29 50.20230 3.49548 10126 ft 283 kts 66°
2026-04-25 03:29 50.20737 3.51455 9920 ft 282 kts 66°
2026-04-25 03:29 50.21476 3.54239 9640 ft 279 kts 66°
2026-04-25 03:30 50.22464 3.57967 9269 ft 276 kts 66°
2026-04-25 03:30 50.23193 3.60727 8999 ft 274 kts 66°
2026-04-25 03:30 50.23674 3.62546 8814 ft 273 kts 66°
2026-04-25 03:30 50.24394 3.65273 8555 ft 271 kts 66°
2026-04-25 03:31 50.24748 3.68140 8269 ft 273 kts 95°
2026-04-25 03:31 50.24062 3.70868 8044 ft 273 kts 126°
2026-04-25 03:31 50.22670 3.72839 7788 ft 271 kts 150°
2026-04-25 03:31 50.20897 3.73753 7539 ft 269 kts 175°
2026-04-25 03:32 50.19062 3.73410 7293 ft 267 kts 202°
2026-04-25 03:32 50.17528 3.71873 7049 ft 262 kts 227°
2026-04-25 03:32 50.16506 3.69572 6811 ft 257 kts 246°
2026-04-25 03:32 50.15796 3.67031 6566 ft 255 kts 249°
2026-04-25 03:33 50.15127 3.64482 6326 ft 254 kts 249°
2026-04-25 03:33 50.14454 3.61947 6064 ft 253 kts 249°
2026-04-25 03:33 50.13776 3.59427 5808 ft 251 kts 249°
2026-04-25 03:33 50.13401 3.56804 5532 ft 248 kts 274°
2026-04-25 03:34 50.13802 3.54235 5295 ft 244 kts 297°
2026-04-25 03:34 50.14782 3.52126 5043 ft 240 kts 320°
2026-04-25 03:34 50.16257 3.50957 4787 ft 243 kts 350°
2026-04-25 03:34 50.17965 3.51132 4551 ft 255 kts 20°
2026-04-25 03:35 50.19422 3.52667 4302 ft 257 kts 49°
2026-04-25 03:35 50.20369 3.55035 4067 ft 258 kts 63°
2026-04-25 03:35 50.21111 3.57570 3852 ft 255 kts 65°
2026-04-25 03:35 50.21790 3.60050 3884 ft 244 kts 66°
2026-04-25 03:36 50.22453 3.62480 3908 ft 242 kts 66°
2026-04-25 03:36 50.23120 3.64902 3915 ft 246 kts 65°
2026-04-25 03:36 50.23810 3.67380 3921 ft 250 kts 65°
2026-04-25 03:36 50.24509 3.69877 3920 ft 251 kts 65°
2026-04-25 03:37 50.25214 3.72385 3924 ft 253 kts 65°
2026-04-25 03:37 50.25915 3.74870 3926 ft 254 kts 65°
2026-04-25 03:37 50.26630 3.77396 3922 ft 254 kts 65°
2026-04-25 03:37 50.27346 3.79923 3918 ft 254 kts 65°
2026-04-25 03:38 50.28061 3.82448 3916 ft 254 kts 65°
2026-04-25 03:38 50.28776 3.84975 3763 ft 257 kts 65°
2026-04-25 03:38 50.29499 3.87530 3509 ft 256 kts 65°
2026-04-25 03:38 50.30216 3.90064 3247 ft 254 kts 65°
2026-04-25 03:39 50.30925 3.92573 2989 ft 251 kts 65°
2026-04-25 03:39 50.31629 3.95059 2739 ft 249 kts 65°
2026-04-25 03:39 50.32323 3.97525 2548 ft 245 kts 65°
2026-04-25 03:39 50.33006 3.99954 2511 ft 243 kts 65°
2026-04-25 03:40 50.33691 4.02378 2507 ft 243 kts 65°
2026-04-25 03:40 50.34364 4.04781 2486 ft 239 kts 65°
2026-04-25 03:40 50.35025 4.07145 2481 ft 233 kts 65°
2026-04-25 03:40 50.35664 4.09399 2481 ft 222 kts 65°
2026-04-25 03:41 50.36255 4.11506 2486 ft 201 kts 65°
2026-04-25 03:41 50.36794 4.13442 2473 ft 190 kts 65°
2026-04-25 03:41 50.37324 4.15323 2507 ft 188 kts 65°
2026-04-25 03:41 50.37835 4.17154 2485 ft 177 kts 65°
2026-04-25 03:42 50.38313 4.18868 2506 ft 175 kts 65°
2026-04-25 03:42 50.38807 4.20618 2486 ft 175 kts 65°
2026-04-25 03:42 50.39300 4.22341 2501 ft 172 kts 64°
2026-04-25 03:42 50.39793 4.24025 2486 ft 168 kts 64°
2026-04-25 03:43 50.40278 4.25677 2495 ft 168 kts 64°
2026-04-25 03:43 50.40766 4.27345 2498 ft 168 kts 64°
2026-04-25 03:43 50.41214 4.28986 2507 ft 161 kts 65°
2026-04-25 03:43 50.41668 4.30535 2486 ft 146 kts 63°
2026-04-25 03:44 50.42093 4.31956 2258 ft 145 kts 63°
2026-04-25 03:44 50.42523 4.33366 2092 ft 143 kts 64°
2026-04-25 03:44 50.42932 4.34777 1923 ft 143 kts 65°
2026-04-25 03:44 50.43338 4.36216 1730 ft 144 kts 64°
2026-04-25 03:45 50.43757 4.37635 1561 ft 143 kts 64°
2026-04-25 03:45 50.44171 4.39059 1405 ft 142 kts 64°
2026-04-25 03:45 50.44590 4.40460 1207 ft 142 kts 65°
2026-04-25 03:45 50.44998 4.41882 993 ft 142 kts 64°
2026-04-25 03:46 50.45407 4.43297 778 ft 143 kts 65°
2026-04-25 03:46 50.45812 4.44691 625 ft 137 kts 65°
2026-04-25 03:46 50.46161 4.45890 616 ft 94 kts 66°
2026-04-25 03:46 50.46370 4.46606 624 ft 61 kts 65°
2026-04-25 03:47 50.46464 4.46894 616 ft 10 kts 19°
2026-04-25 03:47 50.46528 4.46880 622 ft 9 kts 338°
2026-04-25 03:47 50.46587 4.46838 624 ft 10 kts 336°
2026-04-25 03:47 50.46648 4.46795 624 ft 8 kts 336°
2026-04-25 03:48 50.46680 4.46808 619 ft 5 kts 51°
2026-04-25 03:48 50.46701 4.46876 615 ft 8 kts 65°
2026-04-25 03:48 50.46734 4.46922 615 ft 7 kts 355°
2026-04-25 03:48 50.46778 4.46894 619 ft 7 kts 335°
2026-04-25 03:49 50.46804 4.46876 612 ft 2 kts 335°
2026-04-25 03:49 50.46806 4.46874 612 ft 0 kts 335°